| time (UTC) | temp C | wind direction | speed KPH | gust KPH | rain 1hr cm | rain 24hr cm | rain mn cm | humidity % | barometer mb |
| 20260503213237 | 17 | 211 | 14.5 | 20.9 | 0.00 | 0.00 | 0.00 | 46 | 1014.0 |
| 20260503212737 | 17 | 217 | 3.2 | 20.9 | 0.00 | 0.00 | 0.00 | 46 | 1013.4 |
| 20260503212236 | 17 | 180 | 11.3 | 20.9 | 0.00 | 0.00 | 0.00 | 46 | 1013.8 |
| 20260503211737 | 17 | 175 | 8.0 | 20.9 | 0.00 | 0.00 | 0.00 | 46 | 1013.8 |
| 20260503211237 | 17 | 180 | 4.8 | 22.5 | 0.00 | 0.00 | 0.00 | 45 | 1013.9 |
| 20260503210738 | 17 | 185 | 12.9 | 22.5 | 0.00 | 0.00 | 0.00 | 45 | 1013.5 |
| 20260503210237 | 17 | 226 | 9.7 | 19.3 | 0.00 | 0.00 | 0.00 | 45 | 1013.7 |
| 20260503205737 | 17 | 83 | 4.8 | 19.3 | 0.00 | 0.00 | 0.00 | 45 | 1013.8 |
| 20260503205237 | 18 | 156 | 4.8 | 19.3 | 0.00 | 0.00 | 0.00 | 45 | 1013.7 |
| 20260503204737 | 17 | 185 | 9.7 | 17.7 | 0.00 | 0.00 | 0.00 | 44 | 1013.8 |
| 20260503204238 | 18 | 189 | 12.9 | 16.1 | 0.00 | 0.00 | 0.00 | 44 | 1014.1 |
| 20260503203738 | 18 | 197 | 9.7 | 16.1 | 0.00 | 0.00 | 0.00 | 44 | 1014.0 |
| 20260503203237 | 18 | 183 | 6.4 | 20.9 | 0.00 | 0.00 | 0.00 | 44 | 1014.0 |
| 20260503202237 | 18 | 174 | 6.4 | 22.5 | 0.00 | 0.00 | 0.00 | 43 | 1013.9 |
| 20260503201737 | 18 | 116 | 3.2 | 22.5 | 0.00 | 0.00 | 0.00 | 43 | 1013.9 |
| 20260503201237 | 18 | 175 | 3.2 | 16.1 | 0.00 | 0.00 | 0.00 | 43 | 1014.0 |
| 20260503200739 | 18 | 202 | 3.2 | 16.1 | 0.00 | 0.00 | 0.00 | 42 | 1013.9 |
| 20260503200236 | 18 | 185 | 12.9 | 16.1 | 0.00 | 0.00 | 0.00 | 42 | 1014.1 |
| 20260503195737 | 18 | 207 | 6.4 | 30.6 | 0.00 | 0.00 | 0.00 | 42 | 1014.1 |
| 20260503195237 | 18 | 200 | 8.0 | 30.6 | 0.00 | 0.00 | 0.00 | 41 | 1014.4 |
| 20260503194737 | 18 | 184 | 6.4 | 19.3 | 0.00 | 0.00 | 0.00 | 41 | 1014.4 |
| 20260503194237 | 19 | 198 | 9.7 | 19.3 | 0.00 | 0.00 | 0.00 | 41 | 1014.2 |
| 20260503193739 | 19 | 217 | 11.3 | 20.9 | 0.00 | 0.00 | 0.00 | 40 | 1014.4 |
| 20260503193237 | 19 | 208 | 14.5 | 20.9 | 0.00 | 0.00 | 0.00 | 40 | 1014.2 |
| 20260503192738 | 19 | 223 | 14.5 | 20.9 | 0.00 | 0.00 | 0.00 | 40 | 1014.2 |
| 20260503192238 | 19 | 209 | 6.4 | 22.5 | 0.00 | 0.00 | 0.00 | 40 | 1014.0 |
| 20260503191237 | 20 | 227 | 8.0 | 25.7 | 0.00 | 0.00 | 0.00 | 40 | 1014.3 |
| 20260503185737 | 20 | 200 | 16.1 | 29.0 | 0.00 | 0.00 | 0.00 | 39 | 1014.2 |
| 20260503185237 | 20 | 186 | 4.8 | 29.0 | 0.00 | 0.00 | 0.00 | 39 | 1014.0 |
| 20260503184738 | 20 | 305 | 3.2 | 24.1 | 0.00 | 0.00 | 0.00 | 39 | 1013.8 |
| 20260503184237 | 20 | 141 | 9.7 | 24.1 | 0.00 | 0.00 | 0.00 | 39 | 1013.8 |
| 20260503183738 | 20 | 216 | 8.0 | 22.5 | 0.00 | 0.00 | 0.00 | 39 | 1013.9 |
| 20260503183239 | 20 | 303 | 8.0 | 19.3 | 0.00 | 0.00 | 0.00 | 39 | 1014.0 |
| 20260503182736 | 20 | 191 | 4.8 | 19.3 | 0.00 | 0.00 | 0.00 | 39 | 1013.8 |
| 20260503182237 | 20 | 209 | 9.7 | 20.9 | 0.00 | 0.00 | 0.00 | 39 | 1013.9 |
| 20260503181737 | 20 | 187 | 8.0 | 20.9 | 0.00 | 0.00 | 0.00 | 38 | 1013.8 |
| 20260503181237 | 20 | 144 | 4.8 | 17.7 | 0.00 | 0.00 | 0.00 | 38 | 1013.8 |
| 20260503180738 | 21 | 147 | 9.7 | 17.7 | 0.00 | 0.00 | 0.00 | 38 | 1013.8 |
| 20260503180236 | 21 | 178 | 9.7 | 19.3 | 0.00 | 0.00 | 0.00 | 38 | 1013.8 |
| 20260503175737 | 21 | 173 | 8.0 | 19.3 | 0.00 | 0.00 | 0.00 | 38 | 1013.5 |
| 20260503175237 | 21 | 199 | 11.3 | 17.7 | 0.00 | 0.00 | 0.00 | 37 | 1013.7 |
| 20260503174237 | 21 | 293 | 4.8 | 29.0 | 0.00 | 0.00 | 0.00 | 37 | 1013.8 |
| 20260503173737 | 21 | 220 | 11.3 | 29.0 | 0.00 | 0.00 | 0.00 | 37 | 1013.7 |
| 20260503172237 | 22 | 206 | 14.5 | 24.1 | 0.00 | 0.00 | 0.00 | 36 | 1013.8 |
| 20260503171737 | 22 | 201 | 8.0 | 24.1 | 0.00 | 0.00 | 0.00 | 36 | 1013.8 |
| 20260503171237 | 22 | 189 | 9.7 | 17.7 | 0.00 | 0.00 | 0.00 | 36 | 1013.9 |
| 20260503170737 | 22 | 161 | 8.0 | 17.7 | 0.00 | 0.00 | 0.00 | 36 | 1013.5 |
| 20260503170237 | 22 | 155 | 6.4 | 20.9 | 0.00 | 0.00 | 0.00 | 35 | 1013.3 |
| 20260503150236 | 24 | 189 | 11.3 | 27.4 | 0.00 | 0.00 | 0.00 | 33 | 1014.3 |
| 20260503140237 | 24 | 207 | 22.5 | 29.0 | 0.00 | 0.00 | 0.00 | 33 | 1014.8 |
| 20260503131238 | 24 | 166 | 9.7 | 19.3 | 0.00 | 0.00 | 0.00 | 34 | 1015.3 |
| 20260503130737 | 24 | 166 | 9.7 | 19.3 | 0.00 | 0.00 | 0.00 | 34 | 1015.6 |
| 20260503130237 | 24 | 166 | 9.7 | 19.3 | 0.00 | 0.00 | 0.00 | 34 | 1015.7 |
| 20260503110722 | 22 | 320 | 0.0 | 14.5 | 0.00 | 0.00 | 0.00 | 39 | 1017.0 |
| 20260503100210 | 23 | 355 | 0.0 | 0.0 | 0.00 | 0.00 | 0.00 | 40 | 1017.7 |
| 20260503090210 | 21 | 311 | 0.0 | 0.0 | 0.00 | 0.00 | 0.00 | 41 | 1018.2 |
| 20260503081211 | 20 | 327 | 0.0 | 0.0 | 0.00 | 0.00 | 0.00 | 44 | 1018.1 |
| 20260503080708 | 20 | 321 | 0.0 | 0.0 | 0.00 | 0.00 | 0.00 | 43 | 1018.2 |
| 20260503080208 | 19 | 350 | 0.0 | 0.0 | 0.00 | 0.00 | 0.00 | 45 | 1018.4 |
| 20260503072649 | 17 | 61 | 0.0 | 0.0 | 0.00 | 0.00 | 0.00 | 48 | 1018.1 |
| 20260503072149 | 17 | 325 | 0.0 | 0.0 | 0.00 | 0.00 | 0.00 | 48 | 1018.2 |
| 20260503071648 | 17 | 324 | 0.0 | 0.0 | 0.00 | 0.00 | 0.00 | 49 | 1017.9 |
| 20260503071148 | 16 | 316 | 0.0 | 0.0 | 0.00 | 0.00 | 0.00 | 49 | 1018.4 |
| 20260503070642 | 16 | 63 | 0.0 | 0.0 | 0.00 | 0.00 | 0.00 | 51 | 1017.9 |
| 20260503070141 | 16 | 12 | 0.0 | 0.0 | 0.00 | 0.00 | 0.00 | 49 | 1018.3 |
| 20260503060128 | 12 | 319 | 0.0 | 0.0 | 0.00 | 0.00 | 0.00 | 66 | 1018.3 |
| 20260503055127 | 11 | 265 | 0.0 | 0.0 | 0.00 | 0.00 | 0.00 | 70 | 1018.3 |
| 20260503054627 | 10 | 264 | 0.0 | 0.0 | 0.00 | 0.00 | 0.00 | 71 | 1018.1 |
| 20260503054126 | 10 | 311 | 0.0 | 0.0 | 0.00 | 0.00 | 0.00 | 71 | 1018.4 |
| 20260503053125 | 10 | 311 | 0.0 | 0.0 | 0.00 | 0.00 | 0.00 | 70 | 1017.7 |
| 20260503052626 | 9 | 311 | 0.0 | 0.0 | 0.00 | 0.00 | 0.00 | 70 | 1018.1 |
| 20260503052125 | 9 | 311 | 0.0 | 0.0 | 0.00 | 0.00 | 0.00 | 70 | 1018.3 |
| 20260503051126 | 8 | 311 | 0.0 | 0.0 | 0.00 | 0.00 | 0.00 | 71 | 1018.2 |
| 20260503050625 | 8 | 311 | 0.0 | 0.0 | 0.00 | 0.00 | 0.00 | 72 | 1018.3 |
| 20260503050125 | 8 | 310 | 0.0 | 0.0 | 0.00 | 0.00 | 0.00 | 73 | 1017.9 |
| 20260503045625 | 7 | 310 | 0.0 | 0.0 | 0.00 | 0.00 | 0.00 | 74 | 1018.2 |
| 20260503045125 | 7 | 310 | 0.0 | 0.0 | 0.00 | 0.00 | 0.00 | 76 | 1017.8 |
| 20260503044626 | 6 | 310 | 0.0 | 0.0 | 0.00 | 0.00 | 0.00 | 78 | 1017.7 |
| 20260503044125 | 5 | 310 | 0.0 | 0.0 | 0.00 | 0.00 | 0.00 | 81 | 1017.9 |
| 20260503043625 | 5 | 309 | 0.0 | 0.0 | 0.00 | 0.00 | 0.00 | 81 | 1018.2 |
| 20260503043126 | 5 | 309 | 0.0 | 0.0 | 0.00 | 0.00 | 0.00 | 82 | 1017.8 |
| 20260503042625 | 5 | 309 | 0.0 | 0.0 | 0.00 | 0.00 | 0.00 | 83 | 1018.1 |
| 20260503042126 | 5 | 309 | 0.0 | 0.0 | 0.00 | 0.00 | 0.00 | 82 | 1017.8 |
| 20260503041125 | 5 | 309 | 0.0 | 0.0 | 0.00 | 0.00 | 0.00 | 82 | 1017.8 |
| 20260503040121 | 5 | 309 | 0.0 | 0.0 | 0.00 | 0.00 | 0.00 | 81 | 1017.8 |
| 20260503035621 | 5 | 309 | 0.0 | 0.0 | 0.00 | 0.00 | 0.00 | 80 | 1017.8 |
| 20260503035121 | 5 | 309 | 0.0 | 0.0 | 0.00 | 0.00 | 0.00 | 79 | 1017.8 |
| 20260503034621 | 5 | 309 | 0.0 | 0.0 | 0.00 | 0.00 | 0.00 | 79 | 1017.8 |
| 20260503034121 | 5 | 309 | 0.0 | 0.0 | 0.00 | 0.00 | 0.00 | 81 | 1017.8 |
| 20260503033613 | 5 | 309 | 0.0 | 0.0 | 0.00 | 0.00 | 0.00 | 82 | 1017.5 |
| 20260503033114 | 5 | 309 | 0.0 | 0.0 | 0.00 | 0.00 | 0.00 | 81 | 1017.8 |
| 20260503032613 | 5 | 309 | 0.0 | 0.0 | 0.00 | 0.00 | 0.00 | 81 | 1018.1 |
| 20260503032113 | 5 | 309 | 0.0 | 0.0 | 0.00 | 0.00 | 0.00 | 81 | 1018.2 |
| 20260503031614 | 5 | 309 | 0.0 | 0.0 | 0.00 | 0.00 | 0.00 | 82 | 1017.9 |
| 20260503031113 | 5 | 309 | 0.0 | 0.0 | 0.00 | 0.00 | 0.00 | 82 | 1017.9 |
| 20260503030104 | 5 | 309 | 0.0 | 0.0 | 0.00 | 0.00 | 0.00 | 82 | 1017.6 |
| 20260503025104 | 5 | 309 | 0.0 | 0.0 | 0.00 | 0.00 | 0.00 | 80 | 1017.9 |
| 20260503024604 | 5 | 309 | 0.0 | 0.0 | 0.00 | 0.00 | 0.00 | 80 | 1017.6 |
| 20260503024105 | 5 | 309 | 0.0 | 0.0 | 0.00 | 0.00 | 0.00 | 79 | 1017.6 |
| 20260503023556 | 5 | 309 | 0.0 | 0.0 | 0.00 | 0.00 | 0.00 | 80 | 1017.6 |
| 20260503022559 | 5 | 309 | 0.0 | 0.0 | 0.00 | 0.00 | 0.00 | 80 | 1017.7 |
| 20260503022100 | 5 | 309 | 0.0 | 0.0 | 0.00 | 0.00 | 0.00 | 80 | 1017.7 |
| 20260503021559 | 5 | 309 | 0.0 | 0.0 | 0.00 | 0.00 | 0.00 | 79 | 1017.9 |
| 20260503021059 | 5 | 309 | 0.0 | 0.0 | 0.00 | 0.00 | 0.00 | 80 | 1017.7 |
| 20260503020551 | 5 | 309 | 0.0 | 0.0 | 0.00 | 0.00 | 0.00 | 80 | 1017.6 |
| 20260503020104 | 5 | 309 | 0.0 | 0.0 | 0.00 | 0.00 | 0.00 | 81 | 1017.8 |
| 20260503015551 | 5 | 309 | 0.0 | 0.0 | 0.00 | 0.00 | 0.00 | 81 | 1017.9 |
| 20260503014551 | 4 | 309 | 0.0 | 0.0 | 0.00 | 0.00 | 0.00 | 83 | 1017.6 |
| 20260503014051 | 4 | 309 | 0.0 | 0.0 | 0.00 | 0.00 | 0.00 | 82 | 1017.6 |
| 20260503013544 | 5 | 309 | 0.0 | 0.0 | 0.00 | 0.00 | 0.00 | 82 | 1017.7 |
| 20260503013044 | 5 | 309 | 0.0 | 0.0 | 0.00 | 0.00 | 0.00 | 82 | 1017.6 |
| 20260503012544 | 5 | 309 | 0.0 | 0.0 | 0.00 | 0.00 | 0.00 | 81 | 1017.6 |
| 20260503012044 | 5 | 309 | 0.0 | 0.0 | 0.00 | 0.00 | 0.00 | 81 | 1017.7 |
| 20260503011544 | 5 | 309 | 0.0 | 0.0 | 0.00 | 0.00 | 0.00 | 82 | 1017.8 |
| 20260503011035 | 5 | 309 | 0.0 | 0.0 | 0.00 | 0.00 | 0.00 | 82 | 1017.9 |
| 20260503010538 | 5 | 309 | 0.0 | 0.0 | 0.00 | 0.00 | 0.00 | 81 | 1017.6 |
| 20260503010050 | 5 | 309 | 0.0 | 0.0 | 0.00 | 0.00 | 0.00 | 80 | 1017.8 |
| 20260503005537 | 5 | 309 | 0.0 | 0.0 | 0.00 | 0.00 | 0.00 | 80 | 1017.9 |
| 20260503005036 | 5 | 309 | 0.0 | 0.0 | 0.00 | 0.00 | 0.00 | 80 | 1017.9 |
| 20260503004537 | 5 | 309 | 0.0 | 0.0 | 0.00 | 0.00 | 0.00 | 80 | 1017.8 |
| 20260503004038 | 5 | 309 | 0.0 | 0.0 | 0.00 | 0.00 | 0.00 | 79 | 1017.9 |
| 20260503003537 | 5 | 309 | 0.0 | 0.0 | 0.00 | 0.00 | 0.00 | 79 | 1018.2 |
| 20260503003038 | 6 | 309 | 0.0 | 0.0 | 0.00 | 0.00 | 0.00 | 78 | 1018.1 |
| 20260503002539 | 6 | 309 | 0.0 | 0.0 | 0.00 | 0.00 | 0.00 | 78 | 1018.1 |
| 20260503002037 | 6 | 309 | 0.0 | 0.0 | 0.00 | 0.00 | 0.00 | 78 | 1018.1 |
| 20260503001538 | 6 | 309 | 0.0 | 0.0 | 0.00 | 0.00 | 0.00 | 78 | 1018.2 |
| 20260503001051 | 6 | 309 | 0.0 | 0.0 | 0.00 | 0.00 | 0.00 | 77 | 1018.2 |
| 20260503000537 | 6 | 309 | 0.0 | 0.0 | 0.00 | 0.00 | 0.00 | 77 | 1018.2 |
| 20260503000050 | 6 | 309 | 0.0 | 0.0 | 0.00 | 0.00 | 0.00 | 78 | 1018.1 |
| 20260502235537 | 6 | 309 | 0.0 | 0.0 | 0.00 | 0.00 | 0.00 | 79 | 1018.6 |
| 20260502235037 | 5 | 309 | 0.0 | 0.0 | 0.00 | 0.00 | 0.00 | 78 | 1018.6 |
| 20260502234538 | 6 | 309 | 0.0 | 0.0 | 0.00 | 0.00 | 0.00 | 78 | 1018.2 |
| 20260502234037 | 6 | 309 | 0.0 | 0.0 | 0.00 | 0.00 | 0.00 | 79 | 1018.4 |
| 20260502233538 | 6 | 309 | 0.0 | 0.0 | 0.00 | 0.00 | 0.00 | 79 | 1018.5 |
| 20260502232538 | 6 | 309 | 0.0 | 0.0 | 0.00 | 0.00 | 0.00 | 79 | 1018.5 |
| 20260502232038 | 6 | 309 | 0.0 | 0.0 | 0.00 | 0.00 | 0.00 | 79 | 1018.5 |
| 20260502231539 | 6 | 309 | 0.0 | 0.0 | 0.00 | 0.00 | 0.00 | 78 | 1018.6 |
| 20260502231051 | 6 | 309 | 0.0 | 0.0 | 0.00 | 0.00 | 0.00 | 77 | 1018.4 |
| 20260502230537 | 6 | 310 | 0.0 | 0.0 | 0.00 | 0.00 | 0.00 | 78 | 1018.3 |
| 20260502230050 | 6 | 309 | 0.0 | 0.0 | 0.00 | 0.00 | 0.00 | 78 | 1018.4 |
| 20260502225538 | 6 | 310 | 0.0 | 0.0 | 0.00 | 0.00 | 0.00 | 77 | 1018.5 |
| 20260502225039 | 7 | 310 | 0.0 | 0.0 | 0.00 | 0.00 | 0.00 | 76 | 1018.7 |
| 20260502224538 | 7 | 309 | 0.0 | 0.0 | 0.00 | 0.00 | 0.00 | 76 | 1018.7 |
| 20260502224037 | 7 | 310 | 0.0 | 0.0 | 0.00 | 0.00 | 0.00 | 74 | 1018.6 |
| 20260502223537 | 7 | 310 | 0.0 | 0.0 | 0.00 | 0.00 | 0.00 | 74 | 1018.4 |
| 20260502223038 | 7 | 310 | 0.0 | 0.0 | 0.00 | 0.00 | 0.00 | 74 | 1018.8 |
| 20260502222537 | 7 | 310 | 0.0 | 0.0 | 0.00 | 0.00 | 0.00 | 74 | 1018.8 |
| 20260502222051 | 7 | 310 | 0.0 | 0.0 | 0.00 | 0.00 | 0.00 | 73 | 1018.8 |
| 20260502221538 | 7 | 310 | 0.0 | 0.0 | 0.00 | 0.00 | 0.00 | 73 | 1018.9 |
| 20260502221037 | 7 | 310 | 0.0 | 0.0 | 0.00 | 0.00 | 0.00 | 73 | 1018.5 |
| 20260502220537 | 7 | 310 | 0.0 | 0.0 | 0.00 | 0.00 | 0.00 | 72 | 1018.9 |
| 20260502220038 | 7 | 310 | 0.0 | 0.0 | 0.00 | 0.00 | 0.00 | 72 | 1019.1 |
| 20260502215537 | 7 | 310 | 0.0 | 0.0 | 0.00 | 0.00 | 0.00 | 72 | 1018.8 |
| 20260502215038 | 8 | 310 | 0.0 | 0.0 | 0.00 | 0.00 | 0.00 | 71 | 1019.0 |
| 20260502214537 | 8 | 310 | 0.0 | 0.0 | 0.00 | 0.00 | 0.00 | 71 | 1018.7 |